Regional Weather Roundup
Issued by NWS Green Bay, WI

Home | Current Version | Previous Version | Graphics & Text | Print | Product List | Glossary Off
Versions: 1 2 3 4 5 6 7 8 9 10 11 12 13 14 15 16 17 18 19 20 21 22 23 24 25 26 27 28 29 30 31 32 33 34 35 36 37 38 39 40 41 42 43 44 45 46 47 48 49 50

116
ASUS43 KGRB 240701
RWRGRB

NORTH-CENTRAL AND NORTHEAST WISCONSIN REGIONAL WEATHER ROUNDUP
NATIONAL WEATHER SERVICE GREEN BAY WI
200 AM CDT WED MAY 24 2017

WIZ005-009-010>012-018-019-240800-
NORTH CENTRAL WISCONSIN

CITY           SKY/WX    TMP DP  RH WIND       PRES   REMARKS
IRONWOOD       CLOUDY    42  41  96 CALM      29.83F
MANITOWISH WTR NOT AVBL
ARBOR VITAE    NOT AVBL
EAGLE RIVER    NOT AVBL
LAND O LAKES   NOT AVBL
RHINELANDER    CLOUDY    47  44  90 VRB3      29.78F
PHILLIPS       NOT AVBL
ANTIGO         NOT AVBL
TOMAHAWK       NOT AVBL
MERRILL        NOT AVBL
$$

WIZ013-073-240800-
NORTHEAST WISCONSIN

CITY           SKY/WX    TMP DP  RH WIND       PRES   REMARKS
IRON MOUNTAIN  CLOUDY    48  42  80 NW7       29.76F
MARINETTE      LGT RAIN  48  46  93 NE9       29.74F
$$

WIZ017-030-035>037-045-240800-
CENTRAL WISCONSIN

CITY           SKY/WX    TMP DP  RH WIND       PRES   REMARKS
MEDFORD        NOT AVBL
WAUSAU         LGT RAIN  49  47  93 NE3       29.72F
MOSINEE        NOT AVBL
MARSHFIELD     CLOUDY    50  46  86 NE9       29.72F
WISC RAPIDS    CLOUDY    51  48  89 NE7       29.73F
STEVENS POINT  NOT AVBL
WAUPACA        NOT AVBL
SHAWANO        NOT AVBL
CLINTONVILLE   NOT AVBL
WAUTOMA        CLOUDY    50  48  93 NE6       29.71F
$$

WIZ038-039-048-051-240800-
FOX VALLEY

CITY           SKY/WX    TMP DP  RH WIND       PRES   REMARKS
NWS GREEN BAY  CLOUDY    50  49  96 NE18G26   29.71F
APPLETON       NOT AVBL
OSHKOSH        LGT RAIN  51  48  89 NE13      29.70S FOG
FOND DU LAC    CLOUDY    51  47  86 NE9       29.69F
$$

WIZ022-050-052-240800-
EAST CENTRAL WISCONSIN

CITY           SKY/WX    TMP DP  RH WIND       PRES   REMARKS
EPHRAIM        NOT AVBL
WASHINGTON ISL NOT AVBL
STURGEON BAY   LGT RAIN  48  46  93 N5        29.73S
MANITOWOC      NOT AVBL
SHEBOYGAN      LGT RAIN  47  47 100 NE8       29.69F
$$

LMZ563-521-522-541>543-240800-
LAKESHORE

STATION/POSITION TIME  TEMP    WIND        PRES    VSBY  WAVE
                       AIR SEA DIR/SP/G                  HT/PER
                 (UTC) (F)     (DEG/KT/KT) (MB)    (MI)  (FT/S)
SHEBOYGAN LKSHOR 0600   45      10/ 11/ 12 1005.9F
KEWAUNEE LKSHORE 0630   48      10/ 12/ 16 1005.8F
NORTHPORT PIER   0640   47     350/  9/ 11 1006.8F
N MID LAKE BUOY  0550   42 39   30/  8/ 10 1008.3F         1
CHAMBERS ISLAND  0640   47     360/ 13/ 19 1006.8F
MENOMINEE LKSHOR 0624           10/ 14/ 17 1006.1
$$




USA.gov is the U.S. government's official web portal to all federal, state and local government web resources and services.